• Join FlightAware (Why Join?)
  • Login
  • US Flag 
08:06AM EDT


 

Airport Tracker/Info


-or-


 

Live Flight TrackerFlight Track Log ✈ GJS3615 ✈ 04-May-2013 ✈ KOMA - KORD

Flight Track Log - Related Links

Times and Time Zones

All times are in EDT time to prevent confusion due to time zone crossing. See the GJS3615 flight status page for this flight to view local times or setup timezone preferences in your user account.

Time Position Orientation Groundspeed Altitude Reporting Facility
EDT Latitude Longitude Course Direction KTS MPH feet Rate Location/Type
07:05AM 41.3064 -95.9044 44° Northeast 142 163 1,600  Level Minneapolis Center
07:06AM 41.3339 -95.9122 348° North 154 177 3,700 2,100 Climbing Minneapolis Center
07:07AM 41.3578 -95.8978 24° Northeast 186 214 4,200 1,260 Climbing Minneapolis Center
07:07AM 41.3797 -95.8764 36° Northeast 219 252 5,000 1,800 Climbing Minneapolis Center
07:08AM 41.4019 -95.8442 47° Northeast 200 230 6,000 2,280 Climbing Minneapolis Center
07:09AM 41.5914 -95.5430 40° Northeast  Level FlightAware Approximate
07:09AM 41.4536 -95.7794 43° Northeast 228 262 8,500  Level Minneapolis Center
07:10AM 41.6639 -95.4567 42° Northeast  Level FlightAware Approximate
07:10AM 41.5097 -95.7081 44° Northeast 254 292 10,900  Level Minneapolis Center
07:11AM 41.7317 -95.3640 44° Northeast  Level FlightAware Approximate
07:11AM 41.5736 -95.6275 43° Northeast 287 330 12,700  Level Minneapolis Center
07:12AM 41.6442 -95.5392 43° Northeast 328 377 14,800 1,980 Climbing Minneapolis Center
07:13AM 41.7169 -95.4472 43° Northeast 354 407 16,800 1,800 Climbing Minneapolis Center
07:14AM 41.7931 -95.3508 43° Northeast 373 429 18,500 1,680 Climbing Minneapolis Center
07:15AM 41.8708 -95.2522 43° Northeast 382 440 20,300 1,800 Climbing Minneapolis Center
07:16AM 41.9494 -95.1517 44° Northeast 390 449 22,100 1,680 Climbing Minneapolis Center
07:17AM 42.0281 -95.0511 44° Northeast 391 450 23,800 1,560 Climbing Minneapolis Center
07:18AM 42.0664 -94.9186 69° East 387 445 25,300 1,140 Climbing Minneapolis Center
07:19AM 42.0775 -94.8014 83° East 392 451 26,100 840 Climbing Minneapolis Center
07:20AM 42.0939 -94.6214 83° East 400 460 27,100 1,020 Climbing Minneapolis Center
07:21AM 42.1078 -94.4656 83° East 411 473 28,200 1,080 Climbing Minneapolis Center
07:22AM 42.1244 -94.3103 82° East 415 478 29,300 1,260 Climbing Minneapolis Center
07:23AM 42.1392 -94.1542 83° East 418 481 30,800 1,320 Climbing Minneapolis Center
07:24AM 42.1531 -94.0017 83° East 415 478 32,000 1,080 Climbing Minneapolis Center
07:25AM 42.1650 -93.8519 84° East 413 475 33,000 480 Climbing Minneapolis Center
07:26AM 42.1811 -93.6678 83° East 417 480 33,000 120 Level Minneapolis Center
07:27AM 42.1956 -93.5164 83° East 413 475 33,300 600 Climbing Minneapolis Center
07:28AM 42.2075 -93.3656 84° East 410 472 34,300 840 Climbing Minneapolis Center
07:29AM 42.2208 -93.2153 83° East 408 470 35,000 300 Climbing Minneapolis Center
07:30AM 42.2328 -93.0606 84° East 416 479 35,000  Level Minneapolis Center
07:31AM 42.2461 -92.9039 83° East 423 487 35,000  Level Minneapolis Center
07:32AM 42.2586 -92.7481 84° East 423 487 35,000  Level Minneapolis Center
07:33AM 42.2703 -92.5919 84° East 423 487 35,000  Level Minneapolis Center
07:34AM 42.2819 -92.4386 84° East 419 482 35,000  Level Minneapolis Center
07:35AM 42.2936 -92.2858 84° East 415 478 35,000  Level Minneapolis Center
07:36AM 42.3053 -92.1356 84° East 410 472 35,000  Level Minneapolis Center
07:37AM 42.3164 -91.9817 84° East 412 474 35,000  Level Chicago Center
07:38AM 42.3275 -91.8300 84° East 412 474 35,000  Level Chicago Center
07:39AM 42.3397 -91.6475 85° East 413 475 35,000  Level Chicago Center
07:40AM 42.3508 -91.4931 84° East 418 481 35,000  Level Chicago Center
07:41AM 42.3608 -91.3406 85° East 417 480 35,000  Level Chicago Center
07:42AM 42.3706 -91.1886 85° East 412 474 35,000  Level Chicago Center
07:43AM 42.3806 -91.0336 85° East 419 482 35,000  Level Chicago Center
07:44AM 42.3906 -90.8786 85° East 419 482 35,000  Level Chicago Center
07:45AM 42.3994 -90.7233 86° East 419 482 35,000  Level Chicago Center
07:46AM 42.4183 -90.5383 82° East 418 481 35,000 -720 Level Chicago Center
07:47AM 42.4336 -90.3822 82° East 422 486 33,600 -2,040 Descending Chicago Center
07:48AM 42.4494 -90.2264 82° East 421 484 30,900 -2,580 Descending Chicago Center
07:49AM 42.4647 -90.0633 83° East 436 502 28,400 -2,640 Descending Chicago Center
07:50AM 42.4831 -89.8872 82° East 434 499 25,600 -2,580 Descending Chicago Center
07:51AM 42.4972 -89.7358 83° East 412 474 23,300 -2,340 Descending Chicago Center
07:52AM 42.5114 -89.5883 83° East 398 458 20,900 -2,340 Descending Chicago Center
07:53AM 42.5242 -89.4444 83° East 388 447 18,600 -2,280 Descending Chicago Center
07:54AM 42.5383 -89.3036 82° East 381 438 16,400 -1,980 Descending Chicago Center
07:55AM 42.5511 -89.1753 82° East 348 400 14,700 -1,440 Descending Chicago Center
07:56AM 42.5397 -89.0525 97° East 333 383 13,500 -1,140 Descending Chicago Center
07:57AM 42.5053 -88.9353 112° Southeast 335 386 12,500 -1,020 Descending Chicago Center
07:58AM 42.4714 -88.8189 112° Southeast 333 383 11,500 -1,020 Descending Chicago Center
07:59AM 42.4381 -88.7100 112° Southeast 312 359 10,500 -1,080 Descending Chicago Center
08:00AM 42.4058 -88.6033 112° Southeast 267 307 9,300 -780 Descending Chicago Center
08:01AM 42.3772 -88.5106 113° Southeast 265 305 9,000 -180 Descending Chicago Center
08:02AM 42.3492 -88.4178 112° Southeast 268 308 9,000 -540 Level Chicago Center
08:03AM 42.2858 -88.3811 157° South 272 313 8,000 -1,380 Descending Chicago Center
08:04AM 42.2114 -88.3836 181° South 268 308 6,300 -1,500 Descending Chicago Center
08:05AM 42.1425 -88.3653 169° South 259 298 5,000 -840 Descending Chicago Center
08:06AM 42.0797 -88.3250 155° Southeast 251 289 4,700 -540 Descending Chicago Center
08:07AM 42.0303 -88.2603 136° Southeast 247 284 4,000 -360 Descending Chicago Center
08:08AM 41.9892 -88.2128 139° Southeast 210 242 4,000  Level Chicago Center
08:09AM 41.9689 -88.1564 116° Southeast 174 200 4,000 -480 Level Chicago Center
08:10AM 41.9667 -88.1000 93° East 172 198 3,100 -960 Descending Chicago TRACON
08:11AM 41.9667 -88.0333 90° East 167 192 2,200 -840 Descending Chicago TRACON
08:12AM 41.9667 -87.9833 90° East 121 139 1,500 -660 Descending Chicago TRACON
08:13AM 41.9667 -87.9333 90° East 124 143 900 -600 Descending Chicago TRACON